Tracking 29030 objects as of 25-Jun-2024
HD Live streaming from Space Station
objects crossing your sky now

ARIANE 44LP DEB

Track ARIANE 44LP DEB now!


NORAD ID: 33544
Int'l Code: 1988-109T
Perigee: 415.2 km
Apogee: 34,410.4 km
Inclination: 7.2 °
Period: 608.4 minutes
Semi major axis: 23783 km
RCS: 0.2316 m2 (medium)
Launch date: December 11, 1988
Source: France (FR)
Launch site: FRENCH GUIANA (FRGUI)

Note: This is SATELLITE DEBRIS
Your satellite tracking list
Your tracking list is empty




NASA's NSSDC Master Catalog

Two Line Element Set (TLE):
1 33544U 88109T   24171.53804055  .00000205  00000-0  50097-3 0  9991
2 33544   7.1740 354.5343 7146713 185.4474 157.4707  2.36690789186151
Source of the keplerian elements: AFSPC